Zurück zum Katalog

CZ-6A DEB

AktivPO
NORAD 61274·DEBRIS·🇨🇳 China

Gestartet Aug 6, 2024 von Taiyuan Satellite Launch Center

Loading…

Nächste Überflüge (nächste 24 Stunden)

TLE

AktuellSource: Space-Track

Epoche: Sep 14, 2026, 09:54 UTC

1 61274U 24140SK  26257.41304635  .00002245  00000-0  11758-2 0  9996
2 61274  88.8466 252.8987 0101359 310.0039  49.2281 14.11394575105426

Verfolge CZ-6A DEB in Echtzeit mit AllMySat

Download on the App Store